Weather History for Athens Eleftherios, Greece

Change the Weather History Date:

Wednesday, April 17, 2013

  Actual Average Record
Temperature  
Mean Temperature 58 °F -  
Max Temperature 64 °F - - ()
Min Temperature 53 °F - - ()
Degree Days  
Heating Degree Days 6    
Growing Degree Days 8 (Base 50)    
Moisture  
Dew Point 33 °F    
Average Humidity 39    
Maximum Humidity 58    
Minimum Humidity 24    
Precipitation  
Precipitation 0.00 in - - ()
Sea Level Pressure  
Sea Level Pressure 30.08 in    
Wind  
Wind Speed 14 mph ()    
Max Wind Speed 30 mph    
Max Gust Speed 41 mph    
Visibility 6.2 miles    
Events      
T = Trace of Precipitation, MM = Missing Value Source: Averaged Metar Reports

Daily Weather History Graph

Daily Weather History Graph

Search for Another Location

Airport:

Trip Planner

Search our weather history database for the weather conditions in past years. The results will help you decide how hot, cold, wet, or windy it might be!

Date:

Astronomy

Apr. 17, 2013 Rise Set
Actual Time 6:46 AM EEST 8:01 PM EEST
Civil Twilight 6:19 AM EEST 8:29 PM EEST
Nautical Twilight 5:46 AM EEST 9:02 PM EEST
Astronomical Twilight 5:12 AM EEST 9:36 PM EEST
Moon 11:44 AM EEST (4/17) 1:25 AM EEST (4/17)
Length of Visible Light 14h 10m
Length of Day
13h 15m
Waxing Crescent, 39% of the Moon is Illuminated
Apr 17
Waxing Crescent
Apr 18
First Quarter
Apr 25
Full
May 2
Last Quarter
May 10
New

Hourly Weather History & Observations

Time (EEST) Temp. Dew Point Humidity Pressure Visibility Wind Dir Wind Speed Gust Speed Precip Events Conditions
12:20 AM 55.4 °F 39.2 °F 54% 30.09 in 6.2 mi North 11.5 mph - N/A   Scattered Clouds
12:50 AM 53.6 °F 39.2 °F 58% 30.09 in 6.2 mi North 9.2 mph - N/A   Partly Cloudy
1:20 AM 55.4 °F 39.2 °F 54% 30.09 in 6.2 mi North 9.2 mph - N/A   Scattered Clouds
1:50 AM 55.4 °F 39.2 °F 54% 30.09 in 6.2 mi North 9.2 mph - N/A   Scattered Clouds
2:20 AM 55.4 °F 37.4 °F 51% 30.06 in 6.2 mi North 8.1 mph - N/A   Partly Cloudy
2:50 AM 55.4 °F 37.4 °F 51% 30.06 in 6.2 mi North 10.4 mph - N/A   Scattered Clouds
3:20 AM 55.4 °F 37.4 °F 51% 30.06 in 6.2 mi North 8.1 mph - N/A   Scattered Clouds
3:50 AM 57.2 °F 37.4 °F 48% 30.06 in 6.2 mi North 12.7 mph - N/A   Scattered Clouds
4:20 AM 57.2 °F 39.2 °F 51% 30.06 in 6.2 mi North 8.1 mph - N/A   Mostly Cloudy
4:50 AM 55.4 °F 39.2 °F 54% 30.04 in 6.2 mi North 11.5 mph - N/A   Mostly Cloudy
5:20 AM 55.4 °F 41.0 °F 58% 30.04 in 6.2 mi NNE 16.1 mph - N/A   Mostly Cloudy
5:50 AM 57.2 °F 39.2 °F 51% 30.04 in 6.2 mi NNE 18.4 mph - N/A   Mostly Cloudy
6:20 AM 57.2 °F 39.2 °F 51% 30.04 in 6.2 mi North 19.6 mph 31.1 mph N/A   Mostly Cloudy
6:50 AM 57.2 °F 35.6 °F 44% 30.04 in 6.2 mi NNE 23.0 mph - N/A   Mostly Cloudy
7:20 AM 57.2 °F 33.8 °F 41% 30.06 in 6.2 mi NNW 16.1 mph - N/A   Mostly Cloudy
7:50 AM 57.2 °F 35.6 °F 44% 30.06 in 6.2 mi North 16.1 mph 29.9 mph N/A   Mostly Cloudy
8:20 AM 57.2 °F 37.4 °F 48% 30.06 in 6.2 mi North 15.0 mph - N/A   Mostly Cloudy
8:50 AM 57.2 °F 35.6 °F 44% 30.06 in 6.2 mi North 15.0 mph - N/A   Mostly Cloudy
9:20 AM 59.0 °F 33.8 °F 39% 30.09 in 6.2 mi North 21.9 mph - N/A   Mostly Cloudy
9:50 AM 60.8 °F 33.8 °F 36% 30.09 in 6.2 mi North 17.3 mph - N/A   Mostly Cloudy
10:20 AM 59.0 °F 33.8 °F 39% 30.09 in 6.2 mi North 23.0 mph 34.5 mph N/A   Mostly Cloudy
10:50 AM 60.8 °F 33.8 °F 36% 30.09 in 6.2 mi North 21.9 mph 33.4 mph N/A   Mostly Cloudy
11:20 AM 62.6 °F 30.2 °F 30% 30.09 in 6.2 mi North 21.9 mph 38.0 mph N/A   Mostly Cloudy
11:50 AM 60.8 °F 33.8 °F 36% 30.09 in 6.2 mi North 28.8 mph 41.4 mph N/A   Mostly Cloudy
12:20 PM 60.8 °F 35.6 °F 39% 30.09 in 6.2 mi North 25.3 mph - N/A   Scattered Clouds
12:50 PM 62.6 °F 35.6 °F 37% 30.09 in 6.2 mi NNE 28.8 mph - N/A   Scattered Clouds
1:20 PM 64.4 °F 33.8 °F 32% 30.09 in 6.2 mi NNE 26.5 mph 39.1 mph N/A   Scattered Clouds
1:50 PM 64.4 °F 30.2 °F 28% 30.09 in 6.2 mi North 21.9 mph 35.7 mph N/A   Scattered Clouds
2:20 PM 64.4 °F 28.4 °F 26% 30.09 in 6.2 mi North 25.3 mph 40.3 mph N/A   Scattered Clouds
2:50 PM 64.4 °F 26.6 °F 24% 30.06 in 6.2 mi North 26.5 mph 39.1 mph N/A   Scattered Clouds
3:20 PM 64.4 °F 33.8 °F 32% 30.06 in 6.2 mi NNE 27.6 mph 39.1 mph N/A   Partly Cloudy
3:50 PM 64.4 °F 30.2 °F 28% 30.09 in 6.2 mi NE 23.0 mph 39.1 mph N/A   Partly Cloudy
4:20 PM 64.4 °F 32.0 °F 30% 30.06 in - NE 23.0 mph 34.5 mph N/A   Clear
4:50 PM 64.4 °F 30.2 °F 28% 30.06 in - NE 29.9 mph 41.4 mph N/A   Clear
5:20 PM 62.6 °F 30.2 °F 30% 30.09 in - NNE 23.0 mph - N/A   Clear
5:50 PM 62.6 °F 30.2 °F 30% 30.06 in - NNE 24.2 mph - N/A   Clear
6:20 PM 62.6 °F 26.6 °F 26% 30.09 in - North 18.4 mph - N/A   Clear
6:50 PM 62.6 °F 26.6 °F 26% 30.09 in - North 13.8 mph - N/A   Clear
7:20 PM 60.8 °F 24.8 °F 25% 30.09 in - North 16.1 mph - N/A   Clear
7:50 PM 60.8 °F 26.6 °F 27% 30.09 in - North 12.7 mph - N/A   Clear
8:20 PM 59.0 °F 26.6 °F 29% 30.09 in - North 10.4 mph - N/A   Clear
8:50 PM 57.2 °F 26.6 °F 31% 30.09 in - North 8.1 mph - N/A   Clear
9:20 PM 57.2 °F 26.6 °F 31% 30.12 in - North 8.1 mph - N/A   Clear
9:50 PM 59.0 °F 24.8 °F 27% 30.12 in - North 6.9 mph - N/A   Clear
10:20 PM 59.0 °F 26.6 °F 29% 30.09 in - North 9.2 mph - N/A   Clear
10:50 PM 55.4 °F 28.4 °F 36% 30.09 in - North 6.9 mph - N/A   Clear
11:20 PM 53.6 °F 30.2 °F 41% 30.09 in - Variable 3.5 mph - N/A   Clear
11:50 PM 55.4 °F 30.2 °F 38% 30.09 in - Variable 2.3 mph - N/A   Clear